Location: Saluda
(35.2377°N, 82.3468°W)
Time: 03:43:05
(UTC+00:00)

Vanguard 2 - Pass Details

Date: 10 October 2022
Orbit: 553 x 2933 km, 32.9° (Epoch: 04 December)

Event Time Altitude Azimuth Distance (km) Brightness Sun altitude
Rises 01:03:28 0° 270° (W) 6,523 13.6 -25.5°
Reaches altitude 10° 01:11:59 10° 246° (WSW) 5,732 12.6 -27.2°
Maximum altitude 01:17:55 13° 226° (SW) 5,530 12.2 -28.4°
Drops below altitude 10° 01:23:51 10° 206° (SSW) 5,654 12.0 -29.6°
Sets 01:32:17 0° 181° (S) 6,337 12.1 -31.3°
